Location: Castro Valley
(37.6940°N, 122.0850°W)
Time: 00:22:11
(UTC-07:00)

Amateur Radio Satellites - All Passes

Search period start: 28 August 2015 23:52
Search period end: 29 August 2015 23:52
Location: Castro Valley, 37.6940°N, 122.0850°W

Satellite Date Start Highest point End Downlink Frequencies (MHz)
Time Altitude Azimuth
VELOX 1 28 Aug 23:54:50 23:59:06 49° 261° (W) 00:03:23 145.980
RS-15 28 Aug 23:54:55 00:03:50 25° 29° (NNE) 00:13:21 29.354- 29.394
TIGRISAT 29 Aug 00:01:39 00:06:13 64° 285° (WNW) 00:10:38 435.000
QB50P2 29 Aug 00:03:47 00:07:58 49° 99° (E) 00:12:08 145.880/145.840
BEESAT 3 29 Aug 00:07:26 00:09:42 15° 45° (NE) 00:12:04 437.485
NANOSAT C BR1 29 Aug 00:07:28 00:11:40 52° 100° (E) 00:15:51 145.865
BUGSAT 1 29 Aug 00:13:45 00:17:39 36° 97° (E) 00:21:36 437.445
BEESAT 2 29 Aug 00:14:42 00:16:43 14° 44° (NE) 00:18:51 435.950
ANTELSAT 29 Aug 00:17:30 00:21:49 41° 288° (WNW) 00:26:01 437.575/2403.000
AUBIESAT-1 29 Aug 00:18:42 00:22:38 53° 291° (WNW) 00:26:13 437.475
QB50P1 29 Aug 00:19:37 00:23:57 75° 103° (ESE) 00:28:14 145.935-145.965
M-CUBED/EXP-1 PRIME 29 Aug 00:20:49 00:24:41 41° 293° (WNW) 00:28:14 437.505
Cosmos 2504 29 Aug 00:21:29 00:29:27 88° 96° (E) 00:38:00 435.465 / 435.565
CUSAT 1 29 Aug 00:28:23 00:31:26 30° 89° (E) 00:35:21 437.405
DANDE 29 Aug 00:33:33 00:35:35 16° 86° (E) 00:38:01 436.750
ESTCUBE 1 29 Aug 00:37:24 00:41:03 23° 266° (W) 00:44:36 437.505/2401.250
50 SAT 29 Aug 00:42:56 00:43:35 10° 271° (W) 00:43:59 437.505
SWISSCUBE 29 Aug 00:47:23 00:49:05 12° 64° (ENE) 00:51:02 437.505
TISAT 1 29 Aug 01:02:16 01:06:28 87° 257° (WSW) 01:10:43 437.305
UNISAT 6 29 Aug 01:10:25 01:12:28 13° 295° (WNW) 01:14:17 437.425
SO-50 29 Aug 01:15:06 01:18:26 20° 110° (ESE) 01:22:00 436.795
CUBEBUG 1 29 Aug 01:16:45 01:17:40 10° 271° (W) 01:18:18 437.445
POLYITAN 1 29 Aug 01:20:10 01:23:34 22° 291° (WNW) 01:26:52 437.675
Oscar 19 29 Aug 01:21:13 01:23:27 13° 89° (E) 01:26:00 437.125/150
SPROUT 29 Aug 01:21:40 01:25:26 29° 265° (W) 01:29:09 437.525
ITUPSAT 1 29 Aug 01:21:55 01:25:44 25° 69° (ENE) 01:29:38 437.325
POPSAT HIP 1 29 Aug 01:24:12 01:27:29 21° 291° (WNW) 01:30:38 437.405
DUCHIFAT 1 29 Aug 01:27:44 01:30:54 20° 291° (WNW) 01:33:57 145.980
QB50P2 29 Aug 01:41:14 01:43:28 14° 293° (WNW) 01:45:31 145.880/145.840
GONETS M04 29 Aug 01:43:08 01:43:46 10° 77° (ENE) 01:45:17
BEESAT 3 29 Aug 01:44:03 01:47:58 52° 243° (WSW) 01:51:48 437.485
NANOSAT C BR1 29 Aug 01:45:00 01:47:05 13° 294° (WNW) 01:48:57 145.865
PCSat 29 Aug 01:48:38 01:52:14 19° 107° (ESE) 01:56:03 145.827
BUGSAT 1 29 Aug 01:49:57 01:52:53 18° 291° (WNW) 01:55:40 437.445
BEESAT 2 29 Aug 01:51:11 01:55:11 59° 242° (WSW) 01:59:05 435.950
BEESAT 29 Aug 01:56:17 02:00:57 58° 74° (ENE) 02:05:39 436.000
AIST 2 29 Aug 02:05:16 02:09:07 35° 53° (NE) 02:12:56 435.215
RS-15 29 Aug 02:07:06 02:18:58 72° 56° (NE) 02:31:15 29.354- 29.394
CUSAT 1 29 Aug 02:12:06 02:14:22 15° 298° (WNW) 02:16:48 437.405
DANDE 29 Aug 02:16:10 02:18:34 18° 294° (WNW) 02:21:18 436.750
Cosmos 2504 29 Aug 02:17:43 02:23:05 18° 298° (WNW) 02:28:08 435.465 / 435.565
SWISSCUBE 29 Aug 02:21:39 02:26:25 70° 258° (WSW) 02:31:12 437.505
KKS-1 29 Aug 02:23:56 02:26:45 17° 67° (ENE) 02:29:43 437.445
SO-50 29 Aug 02:54:04 02:58:40 45° 306° (NW) 03:03:24 436.795
Oscar 19 29 Aug 02:58:12 03:03:23 66° 285° (WNW) 03:08:30 437.125/150
ITUPSAT 1 29 Aug 02:59:14 03:03:30 31° 264° (W) 03:07:44 437.325
Gurwin Techsat 1B 29 Aug 03:13:39 03:18:49 52° 99° (E) 03:24:00 435.225
AO-7 29 Aug 03:27:00 03:30:06 13° 87° (E) 03:33:56 29.400- 29.500
PCSat 29 Aug 03:30:00 03:35:17 53° 302° (WNW) 03:40:36 145.827
GONETS M04 29 Aug 03:30:40 03:39:14 70° 94° (E) 03:47:54
BEESAT 29 Aug 03:36:52 03:39:13 13° 270° (W) 03:41:19 436.000
JAS-2 29 Aug 03:40:59 03:47:43 46° 96° (E) 03:53:43 435.910
AIST 2 29 Aug 03:44:28 03:47:27 19° 249° (WSW) 03:50:15 435.215
STARS 29 Aug 03:47:53 03:52:17 85° 76° (ENE) 03:56:44 437.465
MOZHAYETS 4 29 Aug 03:49:32 03:52:48 20° 69° (ENE) 03:56:12
ITAMSAT 1 29 Aug 03:49:59 03:55:11 86° 284° (WNW) 04:00:23 435.822/435.867
KKS-1 29 Aug 03:58:53 04:03:05 41° 262° (W) 04:07:18 437.445
RS-15 29 Aug 04:20:40 04:30:46 31° 254° (WSW) 04:40:35 29.354- 29.394
Cosmos 2499 29 Aug 04:34:41 04:42:27 47° 89° (E) 04:50:45 435.465 / 435.565
O/OREOS (USA 219) 29 Aug 04:52:01 04:54:38 15° 55° (NE) 04:57:25 437.305
Gurwin Techsat 1B 29 Aug 04:54:45 04:58:27 19° 294° (WNW) 05:01:58 435.225
VERMONT LUNAR 29 Aug 05:00:29 05:03:16 37° 154° (SSE) 05:06:04 437.305
HORYU 2 29 Aug 05:02:38 05:07:06 68° 101° (ESE) 05:11:30 437.375
AO-7 29 Aug 05:16:01 05:24:21 79° 106° (ESE) 05:32:39 29.400- 29.500
MOZHAYETS 4 29 Aug 05:25:29 05:29:48 37° 263° (W) 05:34:04
JAS-2 29 Aug 05:26:24 05:32:30 30° 296° (WNW) 05:37:52 435.910
GONETS M04 29 Aug 05:30:14 05:37:00 23° 294° (WNW) 05:43:26
ITAMSAT 1 29 Aug 05:33:30 05:34:00 10° 299° (WNW) 05:34:11 435.822/435.867
CUBESAT XI-V 29 Aug 05:34:34 05:38:01 22° 69° (ENE) 05:41:33 437.345
PHONESAT 2.4 29 Aug 06:22:59 06:25:21 18° 147° (SSE) 06:27:47 2401.200-2431.200
Cosmos 2499 29 Aug 06:28:15 06:35:51 36° 289° (WNW) 06:43:42 435.465 / 435.565
O/OREOS (USA 219) 29 Aug 06:29:58 06:34:28 53° 253° (WSW) 06:38:55 437.305
VERMONT LUNAR 29 Aug 06:36:43 06:39:40 58° 350° (N) 06:42:37 437.305
HORYU 2 29 Aug 06:41:52 06:43:13 11° 296° (WNW) 06:44:18 437.375
Cubesat XI-IV 29 Aug 06:45:35 06:50:09 29° 95° (E) 06:54:48 437.490
YUBILEINY 29 Aug 07:04:05 07:06:16 11° 56° (ENE) 07:09:12 435.215
AO-7 29 Aug 07:10:15 07:16:23 23° 303° (WNW) 07:22:13 29.400- 29.500
CUBESAT XI-V 29 Aug 07:11:05 07:15:16 33° 264° (W) 07:19:25 437.345
PRISM 29 Aug 07:18:23 07:22:20 49° 74° (ENE) 07:26:19 437.425
STRAND 1 29 Aug 07:25:31 07:30:38 86° 76° (ENE) 07:35:46 437.568
CUTE-I 29 Aug 07:30:59 07:36:19 81° 103° (ESE) 07:41:39 437.470
BRITE-PL 29 Aug 07:40:15 07:44:09 20° 91° (E) 07:48:20 437.365/2234.400
PHONESAT 2.4 29 Aug 07:59:32 08:02:56 81° 161° (SSE) 08:06:21 2401.200-2431.200
VERMONT LUNAR 29 Aug 08:13:25 08:16:20 49° 7° (N) 08:19:15 437.305
GOMX 1 29 Aug 08:23:45 08:28:30 31° 94° (E) 08:33:23 467.674
Cubesat XI-IV 29 Aug 08:25:33 08:30:15 32° 291° (WNW) 08:34:53 437.490
DOVE 4 29 Aug 08:51:39 08:56:27 34° 95° (E) 09:01:16 437.250
AIST 1 29 Aug 08:53:04 08:57:18 76° 96° (E) 09:01:34
YUBILEINY 29 Aug 08:56:29 09:05:18 67° 80° (E) 09:14:02 435.215
PRISM 29 Aug 08:56:39 08:58:06 11° 270° (W) 08:59:19 437.425
AAUSAT CUBESAT 2 29 Aug 09:00:23 09:01:37 11° 89° (E) 09:03:05 437.432
CUTE-I 29 Aug 09:13:29 09:15:48 13° 298° (WNW) 09:17:49 437.470
CUTE 1.7 + AOD 2 29 Aug 09:13:58 09:17:49 34° 97° (E) 09:21:41 437.475
BRITE-PL 29 Aug 09:17:37 09:22:54 51° 286° (WNW) 09:28:22 437.365/2234.400
CANX-2 29 Aug 09:27:16 09:31:27 57° 100° (E) 09:35:35 2200.000
AUBIESAT-1 29 Aug 09:30:50 09:33:21 15° 61° (ENE) 09:36:03 437.475
M-CUBED/EXP-1 PRIME 29 Aug 09:32:35 09:35:44 18° 62° (ENE) 09:39:02 437.505
HO-68 29 Aug 09:33:44 09:40:53 62° 102° (ESE) 09:47:59 435.675
PHONESAT 2.4 29 Aug 09:37:38 09:40:57 50° 358° (N) 09:44:17 2401.200-2431.200
ANTELSAT 29 Aug 09:39:53 09:42:06 14° 65° (ENE) 09:44:33 437.575/2403.000
Cosmos 2491 29 Aug 09:40:05 09:48:41 69° 93° (E) 09:57:19 435.465 / 435.565
Oscar 11 29 Aug 09:44:56 09:47:44 17° 92° (E) 09:50:40 145.826/435.025
SO-50 29 Aug 09:48:12 09:50:53 15° 41° (NE) 09:53:42 436.795
VERMONT LUNAR 29 Aug 09:49:53 09:52:49 56° 202° (SSW) 09:55:45 437.305
SEEDS 29 Aug 09:53:55 09:58:08 84° 102° (ESE) 10:02:18 437.485
CINEMA 3 29 Aug 09:58:12 10:03:13 70° 101° (E) 10:08:06 145.822/145.860
GOMX 1 29 Aug 10:01:44 10:06:34 33° 289° (WNW) 10:11:23 467.674
CUBEBUG 2 29 Aug 10:08:07 10:12:30 38° 97° (E) 10:16:46 437.445
Cosmos 2504 29 Aug 10:11:21 10:18:09 27° 68° (ENE) 10:24:55 435.465 / 435.565
ISS 29 Aug 10:14:12 10:17:26 85° 325° (NW) 10:20:41 145.825
COMPASS 1 29 Aug 10:20:44 10:24:50 59° 285° (WNW) 10:28:53 437.405
ZACube-1 29 Aug 10:20:57 10:24:52 29° 95° (E) 10:28:45 437.345
UWE-3 29 Aug 10:21:06 10:25:26 40° 97° (E) 10:29:41 435.000/436.395/437.385
FUNcube-1 29 Aug 10:27:34 10:31:38 33° 96° (E) 10:35:38 145.935
UNISAT 6 29 Aug 10:28:22 10:32:46 44° 73° (ENE) 10:37:15 437.425
DOVE 4 29 Aug 10:29:33 10:34:03 28° 291° (WNW) 10:38:28 437.250
AAUSAT CUBESAT 2 29 Aug 10:33:34 10:37:34 49° 286° (WNW) 10:41:33 437.432
POLYITAN 1 29 Aug 10:35:59 10:38:48 18° 68° (ENE) 10:41:47 437.675
PCSat 29 Aug 10:38:17 10:40:38 13° 42° (NE) 10:43:13 145.827
POPSAT HIP 1 29 Aug 10:39:36 10:42:33 19° 68° (ENE) 10:45:38 437.405
DUCHIFAT 1 29 Aug 10:42:35 10:45:34 20° 69° (ENE) 10:48:42 145.980
CUTE 1.7 + AOD 2 29 Aug 10:50:35 10:53:29 18° 291° (WNW) 10:56:15 437.475
YUBILEINY 29 Aug 10:54:42 11:01:27 24° 277° (W) 11:07:49 435.215
QB50P2 29 Aug 10:55:02 10:58:41 29° 71° (ENE) 11:02:25 145.880/145.840
TIGRISAT 29 Aug 10:57:49 11:02:28 88° 73° (ENE) 11:07:12 435.000
NANOSAT C BR1 29 Aug 10:58:17 11:01:57 30° 71° (ENE) 11:05:42 145.865
BUGSAT 1 29 Aug 11:02:44 11:05:37 20° 69° (ENE) 11:08:38 437.445
AUBIESAT-1 29 Aug 11:02:53 11:07:35 63° 255° (WSW) 11:12:17 437.475
CUSAT 1 29 Aug 11:03:22 11:10:21 39° 73° (ENE) 11:17:58 437.405
CANX-2 29 Aug 11:05:26 11:06:55 11° 294° (WNW) 11:08:10 2200.000
M-CUBED/EXP-1 PRIME 29 Aug 11:05:28 11:10:07 51° 256° (WSW) 11:14:48 437.505
DX 1 29 Aug 11:08:00 11:11:11 20° 94° (E) 11:14:29 434.975-435.025
QB50P1 29 Aug 11:10:23 11:14:22 42° 73° (ENE) 11:18:26 145.935-145.965
DANDE 29 Aug 11:10:44 11:17:06 31° 72° (ENE) 11:24:25 436.750
ANTELSAT 29 Aug 11:13:48 11:18:24 60° 260° (W) 11:23:04 437.575/2403.000
PHONESAT 2.4 29 Aug 11:15:38 11:19:03 76° 14° (NNE) 11:22:27 2401.200-2431.200
DELFI C3 29 Aug 11:17:40 11:21:35 55° 285° (WNW) 11:25:27 145.870
AISAT 29 Aug 11:18:54 11:21:50 18° 92° (E) 11:24:56 437.250
Oscar 11 29 Aug 11:20:06 11:24:04 36° 287° (WNW) 11:27:58 145.826/435.025
HO-68 29 Aug 11:22:28 11:28:08 25° 298° (WNW) 11:33:35 435.675
UKube-1 29 Aug 11:24:40 11:28:22 27° 96° (E) 11:32:06 .
SO-50 29 Aug 11:27:12 11:32:09 84° 238° (WSW) 11:36:57 436.795
VERMONT LUNAR 29 Aug 11:28:32 11:28:52 10° 215° (SW) 11:29:07 437.305
HUMSAT D 29 Aug 11:28:56 11:33:11 67° 101° (E) 11:37:20 437.325/437.525
CUBEBUG 1 29 Aug 11:29:02 11:30:55 13° 90° (E) 11:33:02 437.445
CINEMA 3 29 Aug 11:37:23 11:39:50 13° 295° (WNW) 11:41:59 145.822/145.860
Cosmos 2491 29 Aug 11:39:35 11:46:25 24° 294° (WNW) 11:52:56 435.465 / 435.565
CUBEBUG 2 29 Aug 11:45:26 11:48:54 20° 292° (WNW) 11:52:11 437.445
VELOX 1 29 Aug 11:47:05 11:51:09 34° 97° (E) 11:55:15 145.980
ISS 29 Aug 11:52:22 11:54:15 14° 338° (NNW) 11:56:07 145.825
ZACube-1 29 Aug 11:57:28 12:01:05 23° 291° (WNW) 12:04:32 437.345
UWE-3 29 Aug 11:58:26 12:01:40 18° 293° (WNW) 12:04:42 435.000/436.395/437.385
Cosmos 2504 29 Aug 12:02:40 12:11:02 61° 269° (W) 12:18:52 435.465 / 435.565
FUNcube-1 29 Aug 12:04:21 12:07:44 21° 291° (WNW) 12:10:57 145.935
UNISAT 6 29 Aug 12:06:40 12:09:47 17° 269° (W) 12:12:45 437.425
POLYITAN 1 29 Aug 12:10:31 12:14:27 35° 263° (W) 12:18:24 437.675
POPSAT HIP 1 29 Aug 12:14:21 12:18:12 33° 263° (W) 12:22:03 437.405
50 SAT 29 Aug 12:15:58 12:19:52 80° 285° (WNW) 12:23:41 437.505
DUCHIFAT 1 29 Aug 12:17:24 12:21:11 31° 264° (W) 12:24:58 145.980
PCSat 29 Aug 12:19:33 12:25:00 82° 61° (ENE) 12:30:26 145.827
ESTCUBE 1 29 Aug 12:30:42 12:35:13 82° 100° (E) 12:39:44 437.505/2401.250
QB50P2 29 Aug 12:31:20 12:34:36 21° 267° (W) 12:37:48 145.880/145.840
NANOSAT C BR1 29 Aug 12:34:38 12:37:50 20° 267° (W) 12:40:56 145.865
Oscar 19 29 Aug 12:36:06 12:39:17 17° 65° (ENE) 12:42:40 437.125/150
BUGSAT 1 29 Aug 12:37:22 12:40:55 29° 264° (W) 12:44:28 437.445
DX 1 29 Aug 12:43:35 12:47:30 32° 289° (WNW) 12:51:23 434.975-435.025
CUSAT 1 29 Aug 12:45:42 12:52:59 45° 267° (W) 13:00:39 437.405
QB50P1 29 Aug 12:48:05 12:50:30 14° 269° (W) 12:52:42 145.935-145.965
TISAT 1 29 Aug 12:49:35 12:52:19 17° 92° (E) 12:55:12 437.305
DANDE 29 Aug 12:53:11 13:00:29 56° 265° (W) 13:08:40 436.750
PHONESAT 2.4 29 Aug 12:53:48 12:56:45 27° 210° (SSW) 12:59:42 2401.200-2431.200
AISAT 29 Aug 12:54:25 12:58:35 38° 288° (WNW) 13:02:43 437.250
UKube-1 29 Aug 13:00:53 13:04:23 23° 291° (WNW) 13:07:46 .
CUBEBUG 1 29 Aug 13:03:20 13:07:38 51° 286° (WNW) 13:11:54 437.445
HUMSAT D 29 Aug 13:08:06 13:08:23 10° 295° (WNW) 13:08:24 437.325/437.525
SPROUT 29 Aug 13:09:24 13:13:40 54° 100° (E) 13:17:54 437.525
VELOX 1 29 Aug 13:24:10 13:27:30 20° 292° (WNW) 13:30:41 145.980
ITAMSAT 1 29 Aug 13:29:49 13:32:17 14° 64° (ENE) 13:35:01 435.822/435.867
GONETS M04 29 Aug 13:43:41 13:51:09 31° 70° (ENE) 13:58:51
JAS-2 29 Aug 13:50:58 13:56:10 21° 61° (ENE) 14:01:46 435.910
BEESAT 29 Aug 13:59:33 14:02:31 17° 92° (E) 14:05:40 436.000
PCSat 29 Aug 14:05:57 14:07:48 11° 256° (WSW) 14:09:18 145.827
Oscar 19 29 Aug 14:13:11 14:18:14 55° 260° (W) 14:23:20 437.125/150
AO-7 29 Aug 14:23:49 14:29:03 19° 55° (NE) 14:34:38 29.400- 29.500
SWISSCUBE 29 Aug 14:24:05 14:28:23 34° 97° (E) 14:32:42 437.505
TISAT 1 29 Aug 14:24:18 14:28:14 36° 288° (WNW) 14:32:07 437.305
Cosmos 2499 29 Aug 14:30:32 14:34:47 15° 59° (ENE) 14:39:30 435.465 / 435.565
Gurwin Techsat 1B 29 Aug 14:32:48 14:38:03 69° 75° (ENE) 14:43:21 435.225
JUGNU 29 Aug 14:33:41 14:34:40 10° 171° (S) 14:35:44 437.505
SPROUT 29 Aug 14:47:16 14:49:19 13° 294° (WNW) 14:51:09 437.525
ITUPSAT 1 29 Aug 15:00:57 15:05:44 76° 103° (ESE) 15:10:28 437.325
ITAMSAT 1 29 Aug 15:06:07 15:11:17 69° 258° (WSW) 15:16:27 435.822/435.867
ISS 29 Aug 15:08:19 15:09:28 11° 18° (NNE) 15:10:41 145.825
JAS-2 29 Aug 15:32:48 15:40:20 82° 257° (WSW) 15:48:17 435.910
BEESAT 3 29 Aug 15:34:21 15:38:09 41° 116° (ESE) 15:42:01 437.485
BEESAT 29 Aug 15:36:06 15:40:38 44° 288° (WNW) 15:45:07 436.000
GONETS M04 29 Aug 15:39:57 15:48:27 54° 269° (W) 15:56:53
STARS 29 Aug 15:40:27 15:43:26 18° 93° (E) 15:46:34 437.465
BEESAT 2 29 Aug 15:42:35 15:46:21 37° 115° (ESE) 15:50:11 435.950
KKS-1 29 Aug 15:51:35 15:55:51 42° 99° (E) 16:00:07 437.445
HORYU 2 29 Aug 15:58:49 16:03:08 49° 73° (ENE) 16:07:30 437.375
SWISSCUBE 29 Aug 16:02:18 16:06:04 23° 292° (WNW) 16:09:42 437.505
AIST 2 29 Aug 16:03:42 16:05:10 12° 109° (ESE) 16:06:53 435.215
AO-7 29 Aug 16:12:30 16:20:52 88° 76° (ENE) 16:29:16 29.400- 29.500
Gurwin Techsat 1B 29 Aug 16:16:04 16:18:38 13° 271° (W) 16:20:52 435.225
JUGNU 29 Aug 16:20:16 16:22:50 13° 181° (S) 16:25:24 437.505
Cosmos 2499 29 Aug 16:20:59 16:29:44 80° 82° (E) 16:37:53 435.465 / 435.565
RS-15 29 Aug 16:28:21 16:38:43 55° 112° (ESE) 16:49:33 29.354- 29.394
ITUPSAT 1 29 Aug 16:41:38 16:43:03 11° 297° (WNW) 16:44:11 437.325
ISS 29 Aug 16:43:19 16:46:29 51° 36° (NE) 16:49:40 145.825
BEESAT 3 29 Aug 17:13:23 17:16:16 18° 313° (NW) 17:19:04 437.485
CUTE-I 29 Aug 17:14:29 17:16:49 13° 63° (ENE) 17:19:27 437.470
STARS 29 Aug 17:15:55 17:20:02 37° 288° (WNW) 17:24:05 437.465
BEESAT 2 29 Aug 17:21:28 17:24:32 19° 312° (NW) 17:27:32 435.950
MOZHAYETS 4 29 Aug 17:22:04 17:26:34 58° 100° (E) 17:31:03
JAS-2 29 Aug 17:22:37 17:26:39 14° 277° (W) 17:30:10 435.910
SRMSAT 29 Aug 17:25:25 17:27:53 13° 176° (S) 17:30:23 437.500
KKS-1 29 Aug 17:29:11 17:32:10 17° 293° (WNW) 17:35:00 437.445
HORYU 2 29 Aug 17:37:39 17:40:06 14° 269° (W) 17:42:19 437.375
AIST 2 29 Aug 17:39:08 17:43:18 58° 303° (WNW) 17:47:30 435.215
Cubesat XI-IV 29 Aug 18:05:42 18:10:38 41° 71° (ENE) 18:15:37 437.490
AO-7 29 Aug 18:09:35 18:14:49 17° 271° (W) 18:19:30 29.400- 29.500
Cosmos 2499 29 Aug 18:16:12 18:21:54 19° 279° (W) 18:26:56 435.465 / 435.565
ISS 29 Aug 18:20:51 18:22:36 14° 231° (SW) 18:24:15 145.825
RS-15 29 Aug 18:41:06 18:51:28 44° 315° (NW) 19:02:09 29.354- 29.394
CUTE-I 29 Aug 18:51:01 18:56:20 76° 257° (WSW) 19:01:41 437.470
BRITE-PL 29 Aug 18:51:06 18:53:19 14° 65° (ENE) 18:55:47 437.365/2234.400
MOZHAYETS 4 29 Aug 19:01:08 19:03:21 13° 294° (WNW) 19:05:19
O/OREOS (USA 219) 29 Aug 19:02:04 19:05:27 22° 102° (ESE) 19:08:59 437.305
AIST 1 29 Aug 19:03:15 19:05:47 16° 71° (ENE) 19:08:30
CUBESAT XI-V 29 Aug 19:08:55 19:13:33 68° 101° (E) 19:18:12 437.345
SRMSAT 29 Aug 19:14:02 19:16:13 12° 186° (S) 19:18:22 437.500
GOMX 1 29 Aug 19:30:58 19:34:24 23° 68° (ENE) 19:38:05 467.674
STRAND 1 29 Aug 19:38:16 19:42:50 33° 96° (E) 19:47:28 437.568
Cubesat XI-IV 29 Aug 19:46:42 19:50:55 23° 267° (W) 19:55:00 437.490
Cosmos 2491 29 Aug 19:53:16 20:00:38 31° 70° (ENE) 20:08:14 435.465 / 435.565
DOVE 4 29 Aug 19:55:54 19:59:35 25° 69° (ENE) 20:03:32 437.250
HO-68 29 Aug 20:00:27 20:06:52 38° 66° (ENE) 20:13:26 435.675
YUBILEINY 29 Aug 20:04:09 20:07:34 13° 79° (ENE) 20:11:42 435.215
CUTE 1.7 + AOD 2 29 Aug 20:05:28 20:08:38 21° 70° (ENE) 20:11:55 437.475
CANX-2 29 Aug 20:18:22 20:22:11 32° 72° (ENE) 20:26:03 2200.000
BRITE-PL 29 Aug 20:27:17 20:31:24 47° 262° (W) 20:35:48 437.365/2234.400
PRISM 29 Aug 20:37:21 20:41:27 74° 284° (WNW) 20:45:33 437.425
Oscar 11 29 Aug 20:39:31 20:40:57 12° 66° (ENE) 20:42:36 145.826/435.025
AIST 1 29 Aug 20:39:37 20:43:39 38° 268° (W) 20:47:39
O/OREOS (USA 219) 29 Aug 20:40:38 20:44:43 32° 298° (WNW) 20:48:48 437.305
SEEDS 29 Aug 20:43:50 20:47:53 44° 74° (ENE) 20:51:58 437.485
CUBESAT XI-V 29 Aug 20:48:47 20:50:29 12° 295° (WNW) 20:51:56 437.345
CINEMA 3 29 Aug 20:57:45 21:02:11 49° 74° (ENE) 21:06:52 145.822/145.860
RS-15 29 Aug 21:01:05 21:08:11 18° 347° (NNW) 21:15:16 29.354- 29.394
CUBEBUG 2 29 Aug 21:04:32 21:08:19 26° 70° (ENE) 21:12:16 437.445
GOMX 1 29 Aug 21:08:27 21:12:23 31° 266° (W) 21:16:29 467.674
COMPASS 1 29 Aug 21:09:31 21:13:42 70° 77° (ENE) 21:17:56 437.405
ZACube-1 29 Aug 21:15:26 21:18:39 20° 68° (ENE) 21:22:03 437.345
UWE-3 29 Aug 21:16:23 21:20:12 27° 70° (ENE) 21:24:09 435.000/436.395/437.385
STRAND 1 29 Aug 21:17:42 21:21:56 26° 292° (WNW) 21:26:05 437.568
FUNcube-1 29 Aug 21:21:39 21:25:06 23° 69° (ENE) 21:28:43 145.935
AAUSAT CUBESAT 2 29 Aug 21:21:47 21:26:00 83° 77° (ENE) 21:30:12 437.432
DOVE 4 29 Aug 21:33:18 21:37:14 29° 266° (W) 21:41:20 437.250
CUTE 1.7 + AOD 2 29 Aug 21:40:34 21:44:23 30° 264° (W) 21:48:10 437.475
HO-68 29 Aug 21:47:59 21:54:36 38° 263° (W) 22:01:10 435.675
Cosmos 2491 29 Aug 21:49:30 21:57:58 55° 269° (W) 22:06:22 435.465 / 435.565
YUBILEINY 29 Aug 21:54:26 22:03:11 81° 95° (E) 22:12:02 435.215
CANX-2 29 Aug 21:55:02 21:58:12 19° 267° (W) 22:01:13 2200.000
DELFI C3 29 Aug 22:02:20 22:06:21 65° 76° (ENE) 22:10:22 145.870
DX 1 29 Aug 22:02:49 22:05:08 15° 66° (ENE) 22:07:38 434.975-435.025
Oscar 11 29 Aug 22:12:22 22:16:40 60° 260° (W) 22:20:59 145.826/435.025
AISAT 29 Aug 22:16:02 22:18:01 13° 66° (ENE) 22:20:14 437.250
UKube-1 29 Aug 22:18:17 22:21:17 19° 68° (ENE) 22:24:27 .
HUMSAT D 29 Aug 22:18:35 22:22:31 36° 72° (ENE) 22:26:31 437.325/437.525
SEEDS 29 Aug 22:21:41 22:23:57 14° 270° (W) 22:25:59 437.485
UNISAT 6 29 Aug 22:25:33 22:25:56 10° 87° (E) 22:26:40 437.425
CINEMA 3 29 Aug 22:37:00 22:39:47 15° 271° (W) 22:42:24 145.822/145.860
Cosmos 2504 29 Aug 22:40:36 22:45:45 20° 81° (E) 22:51:32 435.465 / 435.565
CUBEBUG 2 29 Aug 22:40:56 22:44:55 28° 266° (W) 22:48:56 437.445
VELOX 1 29 Aug 22:43:12 22:46:44 25° 70° (ENE) 22:50:24 145.980
ZACube-1 29 Aug 22:50:35 22:54:46 36° 263° (W) 22:58:59 437.345
M-CUBED/EXP-1 PRIME 29 Aug 22:50:51 22:52:27 12° 94° (E) 22:54:13 437.505
TIGRISAT 29 Aug 22:52:27 22:55:53 21° 93° (E) 22:59:21 435.000
UWE-3 29 Aug 22:52:46 22:56:39 27° 266° (W) 23:00:33 435.000/436.395/437.385
FUNcube-1 29 Aug 22:57:12 23:01:15 32° 264° (W) 23:05:19 145.935
50 SAT 29 Aug 22:57:17 23:00:59 40° 74° (ENE) 23:04:44 437.505
ANTELSAT 29 Aug 23:08:04 23:12:12 33° 96° (E) 23:16:14 437.575/2403.000
RS-15 29 Aug 23:18:43 23:26:48 21° 22° (NNE) 23:35:26 29.354- 29.394
ESTCUBE 1 29 Aug 23:28:19 23:32:43 59° 75° (ENE) 23:37:09 437.505/2401.250
DX 1 29 Aug 23:36:52 23:41:02 46° 261° (W) 23:45:13 434.975-435.025
TISAT 1 29 Aug 23:42:02 23:42:48 11° 65° (ENE) 23:43:49 437.305
